Location: Palomar Mountain Lodge
(33.3110°N, 116.8495°W)
Time: 12:34:32
(UTC-07:00)

Cosmos 1818 - Pass Details

Date: 12 July 2018
Orbit: 771 x 802 km, 65.0° (Epoch: 20 September)

Event Time Altitude Azimuth Distance (km) Brightness Sun altitude
Rises 20:47:16 0° 337° (NNW) 3,311 7.8 -9.6°
Reaches altitude 10° 20:49:47 10° 343° (NNW) 2,378 6.9 -10.0°
Maximum altitude 20:55:05 49° 58° (ENE) 1,029 4.0 -10.9°
Enters shadow 20:59:19 16° 129° (SE) 2,001 5.0 -11.6°
